Regional Weather Roundup
Issued by NWS

Home | Current Version | Previous Version | Graphics & Text | Print | Product List | Glossary Off
Versions: 1 2 3 4 5 6 7 8 9 10 11 12 13 14 15 16 17 18 19 20 21 22 23 24 25 26 27 28 29 30 31 32 33 34 35 36 37 38 39 40 41 42 43 44 45 46 47 48 49 50

000
ASUS44 KMEG 270910
RWRTN
TENNESSEE HOURLY STATE WEATHER ROUNDUP
NATIONAL WEATHER SERVICE MEMPHIS TN
400 AM CDT THU APR 27 2017

TNZ002-004-019-021-049-052-054-088>092-271000-
WEST TENNESSEE

CITY           SKY/WX    TMP DP  RH WIND       PRES   REMARKS
MEMPHIS INTL   CLOUDY    52  49  89 NW14G23   29.69R
NWS MEMPHIS      N/A     51 N/A N/A MISG        N/A
JACKSON        CLOUDY    55  54  96 W13       29.64R
DYERSBURG      CLOUDY    52  49  89 W9        29.66R
SOMERVILLE     CLOUDY    54  54 100 W6        29.65R
UNION CITY     CLOUDY    54  52  94 W12       29.61R
BOLIVAR        CLOUDY    57  55  94 W9G16     29.64R
PARIS          CLOUDY    57  57 100 W10       29.59R
HUNTINGDON     CLOUDY    61  59  94 W9G24     29.59R
LEXINGTON      CLOUDY    61  61 100 S7        29.60S
SAVANNAH       CLOUDY    63  61  94 SW9       29.61S
$$

TNZ008-025-027-028-033-062-065-066-271000-
NORTH MIDDLE TENNESSEE

CITY           SKY/WX    TMP DP  RH WIND       PRES   REMARKS
NASHVILLE      LGT RAIN  64  63  96 SW3       29.61R
PORTLAND       CLOUDY    63  61  94 S6        29.58R
CLARKSVILLE    MOCLDY    60  58  92 S6        29.58R
SMYRNA         CLOUDY    64  63  96 S5        29.62R THUNDER
COOKEVILLE     CLOUDY    63  59  88 S6G12     29.67R FOG
GALLATIN       MOCLDY    63  61  94 S5        29.62F
CROSSVILLE     CLOUDY    65  55  70 S10G17    29.76R THUNDER
$$

TNZ061-075-076-078-094-096-097-271000-
SOUTH MIDDLE TENNESSEE

CITY           SKY/WX    TMP DP  RH WIND       PRES   REMARKS
FAYETTEVILLE     N/A     63  63 100 SE13      29.62F
TULLAHOMA      CLOUDY    61  61 100 SE6       29.65F
WINCHESTER     CLOUDY    63  61  94 SW3       29.67F
MCMINNVILLE    CLOUDY    63  63 100 SE3       29.66F
COLUMBIA       MOCLDY   N/A N/A N/A SW5       29.61R
SHELBYVILLE    CLOUDY    64  64 100 S8        29.62F
$$

TNZ017-018-042-046-047-271000-
NORTHEAST TENNESSEE

CITY           SKY/WX    TMP DP  RH WIND       PRES   REMARKS
TRI CITIES     PTCLDY    57  53  86 E3        29.73F
ELIZABETHTON     N/A     54  54 100 CALM      29.75R
$$

TNZ012-013-036-069-073-074-271000-
CENTRAL EAST TENNESSEE

CITY           SKY/WX    TMP DP  RH WIND       PRES   REMARKS
KNOXVILLE      CLOUDY    67  54  63 SW12      29.71S
OAK RIDGE      CLOUDY    70  54  56 SW8       29.74R
DOWNTOWN KNOXV CLEAR     63  57  82 CALM      29.71R
GATLINBURG     CLEAR     61  54  77 CALM      29.69F
MORRISTOWN     CLEAR     59  57  94 CALM      29.71S
JACKSBORO      CLEAR     70  55  60 SW17G29   29.74R
$$

TNZ083-085-099-271000-
SOUTHEAST TENNESSEE

CITY           SKY/WX    TMP DP  RH WIND       PRES   REMARKS
CHATTANOOGA    CLOUDY    68  56  65 VRB6      29.69F
$$

SKY/WX REPORTED AS FAIR MEANS FEW OR NO CLOUDS BELOW
12 THOUSAND FEET.




USA.gov is the U.S. government's official web portal to all federal, state and local government web resources and services.